sat.trackr.live / text

‹ back to catalog

ARABSAT-5A

NORAD 36745 · 2010-032B

PAYLOAD ACTIVE UNKNOWN

§ Identity

Operator
Country
AB
Launch date
2010-06-26
Launch site
FRGUI
Launch vehicle
Mass (kg)
RCS (m²)
11.14

Purposes: comms

External: N2YO · Heavens-Above · Gunter

§ Orbital elements

Epoch: 2026-05-25T03:53:16.431936Z

Period
1,436.13 min
Inclination
0.0734°
Eccentricity
0.0005179
Mean motion
1.00269151 rev/d
Perigee alt
35,765.5 km
Apogee alt
35,809.2 km
Semi-major
42,165.5 km
B*
0.0000e+0
RAAN
53.3033°
Arg perigee
34.7149°
Mean anomaly
243.5677°
Rev number
5,841

§ Raw data

ARABSAT-5A1 36745U 10032B   26145.16199574  .00000151  00000+0  00000+0 0  99962 36745   0.0734  53.3033 0005179  34.7149 243.5677  1.00269151 58415

JSON: /api/v1/satellites/36745 · /tle

For live sub-satellite position, see the globe view (requires WebGL).

§ Visibility from observer

Set your observer location to see the next 7 days of passes ≥ 10°. The values pass through the URL so the page stays shareable.

No JS? Fill the form by hand. The geolocation button needs JavaScript.